Temp
-7 -7 -6 -5 -5 -5 -5 -6 -7 -8 -8 -6 -6 -6 -5 -6 -5 -4 -4 -4 -4 -3 -3 -4 -4 -4 -4 -4 -4 -4 -4 -4 -5 -5 -5 -6 -6 -6 -6 -6 -6 -6 -6 -6 -6 -6 -6 -5 -5
-7 -7 -7 -6 -5 -4 -5 -6 -6 -7 -8 -7 -7 -6 -5 -5 -5 -4 -4 -4 -4 -4 -4 -4 -4 -4 -4 -4 -4 -4 -4 -5 -5 -5 -6 -6 -6 -6 -6 -6 -6 -6 -6 -6 -6 -6 -6 -6 -6
-7 -7 -7 -6 -5 -4 -5 -6 -7 -7 -7 -7 -7 -6 -6 -5 -4 -4 -4 -4 -4 -4 -4 -4 -4 -4 -4 -4 -4 -4 -4 -5 -5 -6 -6 -6 -6 -6 -6 -6 -6 -6 -6 -6 -6 -6 -6 -6 -6
-7 -7 -7 -5 -5 -5 -5 -7 -7 -8 -8 -7 -7 -7 -7 -6 -5 -4 -4 -4 -4 -4 -5 -4 -4 -4 -4 -4 -4 -4 -5 -5 -6 -6 -6 -6 -6 -7 -7 -7 -7 -6 -6 -6 -6 -6 -6 -6 -6
-7 -7 -6 -5 -5 -5 -6 -7 -8 -8 -8 -8 -7 -7 -7 -6 -5 -4 -5 -6 -4 -4 -4 -4 -4 -4 -4 -4 -4 -5 -5 -5 -5 -6 -6 -6 -7 -7 -7 -6 -6 -6 -6 -6 -6 -6 -6 -7 -7
-7 -7 -6 -5 -6 -5 -7 -7 -8 -8 -8 -8 -8 -7 -7 -6 -5 -5 -5 -5 -4 -4 -4 -5 -5 -5 -5 -5 -5 -5 -5 -5 -6 -6 -6 -6 -7 -7 -7 -7 -7 -6 -6 -7 -6 -7 -7 -7 -7
-7 -7 -6 -6 -6 -6 -7 -8 -8 -9 -8 -8 -8 -7 -6 -6 -5 -6 -4 -4 -3 -4 -5 -4 -5 -5 -5 -5 -5 -5 -5 -5 -5 -6 -6 -6 -7 -7 -7 -7 -7 -7 -7 -7 -7 -7 -8 -7 -7
-8 -7 -6 -6 -6 -7 -7 -7 -8 -9 -9 -9 -8 -8 -6 -7 -6 -5 -5 -4 -3 -4 -5 -4 -5 -5 -5 -5 -5 -5 -5 -5 -6 -6 -6 -7 -6 -7 -7 -7 -7 -7 -7 -7 -7 -7 -7 -7 -7
-8 -7 -6 -7 -7 -7 -7 -7 -8 -8 -9 -9 -8 -8 -7 -6 -7 -6 -7 -4 -5 -5 -5 -5 -5 -5 -5 -5 -6 -6 -6 -6 -6 -6 -6 -6 -7 -7 -7 -7 -7 -7 -8 -8 -8 -8 -8 -8 -8
-9 -7 -7 -7 -7 -7 -7 -8 -8 -8 -9 -9 -8 -8 -7 -7 -7 -7 -7 -6 -6 -6 -6 -6 -6 -6 -6 -6 -6 -6 -6 -6 -6 -7 -7 -7 -7 -7 -7 -8 -8 -8 -8 -8 -8 -8 -8 -8 -8
-9 -8 -8 -8 -8 -8 -8 -8 -8 -9 -9 -9 -9 -8 -7 -7 -6 -6 -6 -6 -6 -7 -6 -6 -6 -6 -6 -6 -6 -7 -7 -7 -7 -7 -7 -7 -7 -8 -8 -8 -9 -9 -9 -9 -8 -8 -8 -8 -9
-10 -9 -9 -9 -9 -8 -8 -8 -8 -9 -9 -9 -9 -8 -8 -7 -6 -7 -6 -6 -7 -6 -7 -6 -6 -7 -7 -7 -7 -7 -7 -7 -7 -7 -7 -8 -8 -8 -9 -9 -9 -9 -9 -9 -8 -8 -8 -8 -8
-11 -10 -10 -10 -9 -8 -9 -8 -9 -8 -9 -9 -9 -8 -8 -7 -6 -7 -6 -7 -7 -7 -7 -7 -7 -7 -7 -7 -7 -7 -7 -7 -7 -8 -8 -8 -8 -9 -9 -9 -9 -9 -9 -9 -9 -8 -9 -9 -9
-11 -10 -10 -10 -10 -9 -9 -9 -9 -8 -9 -9 -9 -9 -8 -8 -6 -6 -6 -6 -6 -7 -7 -7 -7 -7 -7 -7 -7 -7 -7 -7 -8 -8 -8 -9 -9 -9 -9 -9 -9 -8 -8 -8 -8 -9 -9 -9 -9
-11 -11 -11 -10 -10 -10 -9 -9 -7 -9 -9 -9 -9 -9 -8 -8 -7 -7 -7 -6 -7 -7 -7 -7 -7 -7 -7 -7 -7 -8 -8 -8 -8 -8 -9 -9 -9 -9 -9 -9 -8 -8 -8 -9 -9 -9 -9 -9 -9
-12 -11 -11 -11 -10 -10 -10 -8 -9 -10 -8 -9 -9 -9 -8 -8 -7 -6 -7 -7 -8 -8 -8 -7 -8 -8 -7 -7 -7 -7 -7 -8 -8 -8 -9 -9 -9 -9 -10 -9 -9 -8 -9 -9 -9 -10 -10 -10 -10
-13 -12 -12 -11 -11 -11 -10 -8 -10 -10 -9 -9 -9 -9 -9 -8 -7 -7 -7 -7 -8 -8 -8 -8 -8 -8 -8 -8 -8 -7 -7 -7 -7 -9 -10 -9 -9 -9 -9 -9 -9 -9 -10 -10 -10 -10 -10 -10 -9
-15 -14 -12 -11 -11 -11 -10 -9 -10 -11 -10 -10 -9 -9 -9 -8 -9 -7 -7 -7 -8 -8 -8 -8 -8 -8 -8 -8 -8 -8 -8 -8 -8 -8 -9 -10 -9 -9 -9 -10 -10 -10 -10 -9 -9 -9 -9 -9 -9
-16 -15 -14 -12 -11 -11 -11 -10 -11 -11 -11 -10 -9 -9 -9 -9 -9 -9 -8 -8 -9 -8 -8 -8 -8 -8 -8 -7 -8 -8 -8 -10 -10 -9 -8 -9 -9 -9 -9 -10 -10 -10 -10 -9 -9 -9 -9 -9 -10
-16 -15 -15 -14 -12 -11 -11 -10 -11 -12 -12 -11 -9 -8 -9 -9 -9 -9 -9 -9 -9 -9 -10 -8 -8 -8 -8 -8 -8 -8 -8 -9 -9 -10 -9 -9 -9 -7 -8 -9 -9 -10 -9 -9 -9 -10 -10 -9 -9
-16 -16 -16 -15 -13 -11 -11 -11 -12 -11 -11 -12 -9 -9 -10 -9 -9 -8 -8 -8 -9 -8 -9 -8 -8 -7 -7 -7 -7 -7 -7 -8 -9 -8 -9 -6 -7 -8 -9 -9 -10 -10 -10 -9 -9 -9 -9 -9 -9
-17 -17 -16 -16 -15 -12 -12 -11 -13 -11 -11 -11 -10 -9 -10 -10 -9 -9 -9 -8 -8 -9 -9 -8 -8 -7 -8 -8 -8 -7 -8 -8 -7 -8 -8 -8 -8 -9 -10 -10 -10 -10 -10 -9 -9 -9 -9 -9 -9
-18 -18 -17 -17 -16 -13 -12 -12 -13 -11 -11 -11 -10 -10 -10 -9 -9 -9 -8 -8 -8 -9 -9 -8 -8 -8 -8 -7 -8 -7 -7 -8 -7 -8 -9 -10 -10 -9 -9 -9 -9 -10 -9 -9 -9 -9 -9 -9 -9
-20 -19 -18 -17 -17 -15 -14 -12 -13 -11 -10 -10 -11 -10 -10 -9 -9 -8 -8 -8 -9 -9 -9 -8 -8 -8 -8 -9 -9 -7 -8 -7 -8 -9 -9 -9 -10 -9 -9 -9 -9 -9 -9 -9 -9 -9 -9 -9 -10
-20 -20 -19 -18 -18 -15 -14 -14 -13 -11 -10 -9 -10 -10 -10 -9 -8 -8 -8 -8 -9 -9 -9 -9 -8 -8 -9 -9 -8 -8 -9 -8 -9 -9 -9 -9 -9 -9 -9 -9 -9 -9 -9 -9 -9 -9 -10 -10 -11
-21 -20 -20 -18 -17 -15 -16 -14 -13 -11 -10 -10 -11 -11 -10 -9 -9 -8 -8 -8 -8 -9 -9 -9 -9 -9 -9 -9 -8 -8 -9 -9 -9 -9 -9 -9 -9 -9 -9 -9 -9 -9 -9 -9 -10 -10 -10 -11 -11
-21 -20 -20 -18 -17 -17 -16 -13 -12 -11 -12 -12 -12 -12 -11 -10 -9 -8 -9 -8 -8 -9 -9 -9 -9 -9 -9 -9 -9 -8 -8 -9 -9 -9 -9 -9 -9 -9 -9 -9 -9 -9 -10 -10 -10 -10 -10 -11 -11
-21 -20 -20 -19 -18 -18 -15 -13 -12 -12 -13 -13 -12 -11 -10 -9 -9 -9 -9 -9 -9 -9 -9 -9 -9 -9 -9 -9 -9 -8 -9 -9 -9 -9 -9 -9 -9 -9 -9 -9 -9 -10 -10 -10 -10 -11 -11 -12 -12
-21 -20 -19 -18 -18 -17 -15 -13 -13 -12 -11 -10 -11 -10 -10 -9 -9 -9 -9 -9 -9 -9 -9 -10 -10 -9 -9 -9 -9 -9 -10 -10 -9 -9 -9 -9 -9 -9 -9 -10 -10 -10 -10 -11 -11 -11 -11 -12 -12
-20 -19 -18 -17 -17 -16 -15 -13 -12 -11 -11 -11 -10 -10 -10 -10 -9 -10 -10 -11 -10 -10 -10 -10 -10 -10 -9 -9 -9 -10 -10 -9 -9 -9 -9 -9 -9 -9 -10 -10 -10 -10 -10 -11 -11 -11 -12 -12 -12
Height
5843 5847 5850 5854 5858 5861 5867 5873 5874 5875 5877 5879 5882 5886 5890 5892 5894 5900 5899 5902 5904 5905 5907 5908 5910 5914 5915 5917 5919 5920 5920 5922 5922 5923 5923 5924 5925 5925 5926 5926 5925 5925 5923 5921 5920 5919 5917 5914 5913
5835 5840 5843 5846 5848 5856 5866 5870 5872 5872 5874 5876 5879 5883 5887 5889 5893 5896 5896 5900 5902 5904 5906 5907 5909 5913 5915 5917 5919 5920 5921 5923 5924 5924 5924 5925 5924 5925 5926 5925 5925 5924 5923 5921 5920 5919 5916 5915 5913
5828 5832 5836 5836 5841 5851 5863 5867 5866 5867 5870 5872 5877 5880 5883 5888 5893 5897 5898 5898 5900 5901 5905 5907 5909 5911 5914 5916 5918 5920 5921 5922 5924 5924 5925 5925 5925 5925 5926 5925 5925 5923 5922 5921 5920 5918 5916 5914 5912
5821 5824 5826 5828 5839 5850 5858 5860 5861 5862 5865 5869 5873 5877 5881 5884 5889 5894 5897 5900 5900 5900 5903 5906 5908 5910 5912 5915 5917 5918 5920 5921 5922 5923 5924 5925 5925 5925 5925 5925 5924 5923 5922 5920 5919 5918 5916 5914 5912
5811 5815 5817 5821 5835 5844 5852 5853 5855 5857 5861 5864 5870 5874 5879 5884 5886 5889 5889 5895 5900 5897 5900 5905 5907 5908 5911 5914 5916 5917 5918 5920 5921 5921 5922 5922 5923 5923 5924 5923 5923 5923 5921 5919 5918 5916 5915 5913 5911
5802 5806 5808 5816 5829 5836 5844 5847 5850 5853 5856 5859 5866 5869 5877 5883 5885 5888 5891 5899 5899 5898 5898 5903 5905 5906 5908 5911 5913 5914 5916 5917 5919 5919 5920 5920 5921 5921 5921 5921 5920 5919 5918 5917 5916 5915 5913 5911 5909
5793 5797 5802 5812 5823 5828 5835 5840 5845 5849 5850 5856 5861 5867 5876 5880 5883 5887 5891 5895 5896 5897 5899 5901 5902 5904 5907 5909 5911 5913 5914 5915 5916 5917 5919 5919 5919 5919 5919 5919 5917 5917 5916 5916 5914 5911 5909 5909 5907
5782 5787 5793 5802 5812 5820 5825 5833 5839 5841 5846 5847 5856 5867 5873 5877 5880 5884 5888 5892 5892 5896 5899 5900 5900 5901 5905 5908 5911 5912 5913 5914 5915 5915 5917 5918 5917 5917 5918 5918 5917 5916 5915 5913 5911 5910 5910 5908 5906
5771 5776 5783 5792 5803 5812 5817 5824 5830 5834 5838 5843 5853 5862 5868 5872 5875 5881 5886 5887 5891 5894 5897 5898 5898 5898 5902 5905 5909 5910 5911 5913 5914 5915 5916 5916 5916 5916 5917 5916 5915 5914 5913 5911 5909 5908 5907 5906 5904
5758 5765 5773 5782 5794 5803 5809 5815 5821 5827 5832 5840 5850 5856 5862 5870 5872 5878 5882 5887 5890 5892 5894 5895 5896 5899 5900 5904 5907 5908 5909 5911 5912 5914 5915 5915 5915 5915 5914 5913 5913 5912 5910 5908 5906 5905 5904 5902 5900
5748 5756 5762 5773 5782 5793 5801 5807 5812 5818 5826 5835 5849 5854 5861 5867 5872 5873 5879 5881 5883 5887 5892 5893 5894 5897 5899 5902 5905 5907 5908 5910 5910 5912 5913 5913 5913 5913 5912 5910 5910 5908 5907 5906 5904 5902 5901 5899 5897
5737 5744 5749 5760 5772 5783 5792 5799 5805 5810 5818 5830 5836 5847 5855 5864 5866 5868 5873 5877 5882 5885 5887 5890 5891 5895 5898 5900 5902 5904 5906 5907 5907 5908 5909 5909 5909 5909 5908 5907 5906 5905 5903 5902 5900 5899 5897 5894 5892
5725 5732 5738 5750 5762 5773 5783 5791 5796 5803 5812 5821 5832 5845 5852 5858 5859 5860 5866 5870 5875 5881 5883 5886 5889 5891 5895 5896 5897 5899 5903 5904 5904 5904 5904 5904 5903 5903 5903 5902 5901 5901 5899 5897 5895 5893 5892 5888 5886
5712 5720 5725 5741 5753 5763 5773 5781 5788 5799 5805 5811 5828 5839 5846 5853 5856 5857 5862 5869 5872 5876 5880 5883 5885 5888 5892 5895 5896 5898 5900 5901 5901 5900 5899 5900 5900 5900 5899 5899 5897 5896 5895 5893 5891 5889 5886 5883 5881
5701 5708 5716 5730 5742 5752 5762 5772 5788 5790 5794 5804 5821 5832 5839 5846 5852 5852 5859 5864 5868 5872 5877 5880 5883 5887 5889 5890 5891 5894 5895 5896 5896 5897 5896 5894 5892 5892 5892 5891 5891 5891 5889 5887 5885 5883 5879 5877 5874
5689 5696 5707 5720 5732 5741 5752 5773 5774 5781 5786 5798 5809 5822 5832 5842 5845 5850 5856 5861 5864 5869 5873 5877 5881 5884 5887 5890 5891 5891 5891 5890 5890 5888 5886 5887 5889 5889 5887 5886 5886 5885 5884 5881 5878 5875 5873 5870 5868
5673 5681 5692 5704 5718 5731 5747 5763 5767 5772 5781 5788 5801 5813 5825 5834 5842 5847 5853 5858 5860 5864 5869 5874 5876 5880 5884 5887 5889 5889 5891 5890 5884 5882 5882 5883 5882 5881 5880 5878 5878 5877 5874 5872 5871 5869 5867 5864 5860
5659 5668 5677 5691 5709 5723 5736 5748 5757 5764 5772 5781 5794 5804 5818 5829 5837 5842 5847 5851 5857 5862 5865 5870 5872 5875 5878 5882 5884 5887 5889 5884 5881 5876 5875 5874 5875 5875 5872 5872 5871 5869 5867 5866 5864 5862 5858 5855 5851
5651 5659 5668 5683 5698 5711 5727 5734 5748 5755 5762 5772 5785 5796 5811 5823 5830 5837 5842 5847 5854 5858 5862 5866 5868 5870 5874 5876 5878 5879 5878 5876 5876 5868 5864 5863 5863 5862 5860 5859 5861 5859 5857 5856 5854 5851 5849 5845 5842
5648 5654 5664 5673 5686 5700 5715 5726 5737 5745 5753 5766 5777 5790 5803 5815 5825 5832 5837 5843 5849 5854 5858 5860 5863 5865 5866 5869 5870 5871 5870 5870 5869 5864 5862 5854 5854 5851 5851 5849 5848 5849 5850 5845 5841 5844 5842 5837 5833
5643 5649 5657 5664 5674 5689 5703 5712 5726 5738 5746 5757 5771 5786 5798 5810 5819 5827 5833 5839 5846 5849 5855 5856 5858 5859 5859 5861 5861 5859 5857 5859 5855 5852 5843 5824 5840 5839 5843 5845 5847 5848 5847 5841 5841 5835 5832 5828 5823
5631 5639 5646 5655 5662 5675 5684 5702 5719 5731 5741 5751 5766 5778 5791 5802 5812 5822 5829 5836 5840 5846 5851 5853 5852 5853 5853 5853 5853 5852 5849 5849 5840 5834 5833 5835 5841 5837 5843 5845 5843 5842 5840 5837 5832 5828 5823 5819 5815
5622 5629 5638 5647 5653 5664 5680 5692 5714 5723 5732 5744 5762 5774 5786 5797 5807 5816 5823 5830 5836 5842 5846 5845 5845 5847 5848 5847 5845 5846 5841 5837 5827 5827 5829 5833 5840 5841 5843 5841 5841 5838 5834 5829 5823 5819 5816 5811 5806
5614 5623 5631 5640 5646 5652 5670 5689 5705 5714 5731 5744 5758 5772 5781 5792 5802 5810 5819 5825 5831 5836 5838 5838 5840 5841 5842 5840 5838 5835 5836 5830 5825 5825 5833 5835 5837 5837 5839 5837 5835 5834 5830 5824 5817 5812 5807 5802 5795
5608 5617 5625 5632 5637 5651 5669 5681 5701 5721 5731 5743 5753 5767 5777 5787 5797 5805 5815 5822 5827 5829 5832 5833 5835 5836 5837 5836 5833 5831 5832 5831 5827 5830 5833 5835 5836 5837 5835 5833 5830 5827 5823 5817 5809 5802 5796 5792 5787
5601 5611 5620 5627 5636 5650 5662 5674 5695 5717 5730 5740 5750 5762 5772 5781 5791 5800 5809 5815 5820 5824 5828 5830 5831 5833 5834 5833 5832 5831 5829 5826 5827 5829 5832 5833 5833 5831 5830 5828 5823 5820 5815 5809 5801 5795 5789 5786 5781
5595 5604 5618 5628 5640 5646 5656 5683 5697 5709 5718 5729 5740 5753 5766 5776 5787 5798 5804 5809 5814 5820 5825 5826 5828 5829 5830 5829 5831 5828 5828 5827 5829 5827 5827 5827 5828 5827 5824 5821 5818 5815 5808 5802 5795 5790 5785 5781 5775
5587 5603 5612 5620 5630 5641 5654 5672 5686 5695 5709 5722 5736 5747 5759 5773 5783 5792 5798 5803 5809 5816 5820 5822 5823 5825 5826 5827 5827 5828 5828 5829 5828 5829 5829 5828 5826 5823 5820 5813 5812 5809 5802 5796 5791 5786 5781 5776 5771
5585 5594 5608 5620 5629 5641 5650 5668 5684 5698 5711 5722 5735 5746 5756 5768 5778 5786 5793 5799 5804 5811 5815 5818 5819 5820 5821 5822 5824 5825 5825 5826 5826 5825 5825 5822 5821 5817 5811 5809 5807 5800 5797 5791 5787 5782 5776 5772 5765
5586 5598 5609 5618 5630 5642 5654 5674 5688 5700 5712 5722 5731 5743 5753 5764 5774 5782 5789 5793 5799 5806 5810 5813 5815 5815 5817 5819 5821 5821 5822 5822 5823 5822 5820 5820 5815 5810 5805 5804 5798 5796 5791 5788 5783 5776 5771 5766 5760
Wind_Speed
45 44 42 40 39 36 33 31 32 28 27 27 25 22 21 20 25 24 19 19 21 18 15 11 8 7 6 5 8 12 11 9 7 7 7 7 6 5 3 3 4 7 9 11 13 14 16 16 17
42 47 47 45 45 38 30 30 32 32 30 29 27 25 21 19 14 26 21 21 21 18 16 12 11 9 7 6 8 11 11 9 7 6 5 4 4 3 2 3 5 7 9 11 13 14 16 17 18
43 44 51 52 48 40 29 27 31 34 34 32 28 27 24 23 21 16 26 23 22 20 14 13 12 11 9 8 9 10 10 9 6 4 3 2 2 2 2 5 6 7 8 10 12 14 16 15 17
47 47 49 55 48 40 33 29 33 34 35 34 31 28 25 23 19 18 22 26 25 22 15 14 14 12 10 9 9 9 9 8 6 3 2 0 1 2 3 6 7 8 10 11 13 14 16 16 18
47 50 52 51 48 43 37 33 33 34 35 35 34 31 28 18 21 20 8 30 26 22 16 14 14 13 11 10 10 10 9 7 5 4 3 3 3 4 5 7 9 10 11 13 14 15 16 17 20
52 50 53 51 42 46 42 38 34 36 36 37 35 35 28 20 21 16 16 19 21 17 16 16 15 14 13 12 12 11 11 9 8 7 6 6 6 6 7 8 9 11 12 13 15 16 16 16 19
53 53 50 46 44 40 46 42 37 34 38 38 36 33 25 19 18 26 23 21 15 13 16 18 16 14 11 11 12 11 11 11 10 9 9 9 9 9 10 9 10 11 12 14 14 14 15 18 22
56 57 55 48 43 44 42 47 42 39 37 42 41 26 18 26 28 30 28 22 21 16 18 18 18 16 13 12 11 10 10 10 10 11 11 10 11 11 10 11 11 13 13 13 14 17 19 22 25
60 61 59 54 47 42 46 45 48 44 42 41 40 35 29 24 30 28 25 27 18 16 19 18 18 19 16 15 13 11 10 10 11 12 12 13 12 12 11 12 12 12 12 14 17 20 21 23 27
60 64 61 56 51 46 45 45 50 50 45 42 40 38 37 25 29 24 19 19 24 16 18 16 15 15 13 13 13 13 12 12 13 12 12 12 13 13 12 12 12 13 15 17 19 22 24 26 27
58 60 61 57 54 51 47 47 48 55 51 43 36 29 33 35 36 26 33 33 33 21 18 18 16 14 14 13 11 12 13 12 12 13 14 14 14 14 13 12 13 16 17 20 23 24 27 27 28
60 59 60 58 55 54 51 48 50 51 57 47 47 38 30 27 28 36 36 31 26 21 22 18 16 14 14 13 12 13 13 14 14 15 15 15 14 14 14 15 17 19 21 23 26 27 28 30 32
61 62 59 56 56 55 52 50 51 52 56 54 49 41 38 41 31 26 35 36 30 26 25 21 18 16 17 17 15 14 15 14 14 14 15 16 17 17 17 18 20 23 24 25 27 28 29 32 35
64 65 64 55 54 56 54 52 52 53 51 60 51 40 36 40 45 32 29 34 34 32 28 25 21 20 20 19 17 17 16 15 17 18 19 18 18 19 21 23 26 25 27 30 31 31 34 38 39
63 67 66 61 54 56 57 54 51 55 57 55 54 48 38 42 47 33 36 41 37 34 29 24 22 20 22 23 23 25 26 22 23 23 24 25 26 24 25 29 28 30 31 33 34 38 41 42 42
63 64 65 63 59 56 57 53 54 55 60 55 56 54 46 48 38 31 36 37 36 31 28 26 22 21 24 25 26 30 33 32 29 34 34 32 27 25 29 31 31 32 34 36 40 43 45 44 45
56 62 66 66 63 58 55 56 54 56 60 57 55 58 51 47 48 45 41 37 31 31 29 25 21 23 24 27 29 32 36 41 43 37 37 38 34 33 33 33 33 32 35 39 42 45 46 47 48
46 57 63 67 63 59 57 59 53 55 59 58 54 57 57 41 49 49 47 40 34 29 31 28 24 25 28 29 33 37 42 46 46 45 42 41 40 36 36 35 35 36 40 44 45 49 48 47 47
43 46 53 64 65 63 58 63 53 55 58 61 57 57 56 55 40 44 39 34 30 30 29 30 32 34 31 32 37 40 48 51 50 56 55 53 44 42 33 33 38 41 43 46 47 45 43 41 39
45 43 41 52 63 65 63 63 55 58 62 59 59 56 56 56 58 48 40 37 34 30 26 29 32 30 30 32 36 37 46 50 54 63 58 52 42 31 30 29 29 35 41 41 28 37 43 48 54
43 45 38 40 55 69 65 67 55 59 65 60 58 52 48 46 49 53 52 48 44 34 27 26 28 25 27 25 26 27 35 37 47 49 67 32 32 33 35 31 36 43 44 50 45 50 51 51 53
48 45 46 37 50 71 71 68 56 61 66 63 56 55 50 47 50 48 46 41 32 27 31 24 19 18 20 25 25 27 31 36 23 35 29 30 29 16 22 29 30 34 37 44 46 48 51 53 55
46 46 44 41 45 68 71 69 59 65 68 65 57 49 50 50 45 40 38 31 21 22 22 17 17 18 22 19 23 19 18 14 34 4 12 20 30 27 32 33 36 38 41 44 46 48 49 53 55
40 43 44 43 41 64 68 67 65 69 65 63 60 49 44 43 42 40 33 24 23 21 17 18 17 17 17 18 25 18 20 25 35 30 19 23 28 30 34 35 37 40 42 44 45 49 52 53 51
38 39 41 42 40 61 63 63 68 62 63 62 60 59 51 46 42 38 30 24 22 17 19 20 17 16 16 17 20 24 23 24 24 21 23 25 28 31 33 34 35 38 43 47 48 46 43 41 42
37 38 41 43 40 57 59 62 70 63 61 63 62 59 57 54 49 40 30 26 23 21 19 20 17 16 18 18 19 18 24 22 24 24 25 27 29 29 30 34 39 43 40 38 35 36 39 39 44
35 40 37 37 39 52 60 62 67 68 71 68 63 62 59 55 47 34 27 26 25 21 18 19 18 18 19 20 17 16 13 16 21 23 25 25 26 28 32 36 38 36 34 33 34 35 39 42 41
35 38 40 40 48 42 62 67 74 77 71 66 64 62 58 50 42 34 31 29 25 20 18 19 21 21 24 19 13 8 10 17 20 20 20 23 26 31 33 32 33 29 28 31 34 40 40 39 41
38 44 43 37 50 41 64 68 77 75 72 67 65 60 56 49 41 33 30 27 25 20 19 21 25 26 19 19 14 13 15 19 18 19 22 24 29 31 29 29 24 28 30 34 40 43 42 39 36
40 44 48 35 50 48 61 67 74 70 69 66 61 59 54 48 39 34 32 32 30 22 22 25 26 22 21 19 17 18 19 18 18 20 22 26 27 25 24 22 27 29 32 36 43 43 37 37 34
Wind_Direction
230 228 224 220 223 218 214 210 213 221 220 226 226 222 227 196 205 201 200 199 200 197 190 178 174 186 160 158 167 158 138 124 108 93 83 71 68 69 52 25 10 10 7 6 3 358 359 359 360
233 227 228 222 223 217 211 208 213 223 227 226 228 227 220 213 206 198 208 204 199 197 190 183 179 178 169 160 168 163 143 130 118 101 96 86 84 72 15 337 349 358 355 354 354 350 352 355 358
231 231 228 227 220 215 206 209 212 218 227 226 228 226 224 214 213 218 220 211 202 189 189 186 191 179 169 168 171 170 150 141 131 117 110 89 45 19 325 318 331 338 339 344 342 344 342 347 351
230 231 231 228 222 216 206 205 215 218 220 229 227 228 225 228 226 217 259 237 205 190 185 189 193 190 173 176 178 178 162 155 150 142 139 115 334 305 300 305 315 321 327 329 332 338 334 342 346
229 230 232 230 222 217 213 208 214 220 219 223 228 234 226 229 229 242 265 201 203 184 177 188 191 190 187 185 185 185 176 172 171 178 196 219 248 270 287 302 312 318 318 321 326 328 333 336 335
227 229 231 230 226 222 218 216 213 221 222 225 224 231 233 238 246 204 163 200 199 188 176 184 188 187 186 188 194 192 188 184 189 202 219 231 247 263 272 286 299 302 310 317 325 329 329 323 323
227 229 231 230 227 225 221 219 211 219 223 224 228 230 233 228 224 181 181 200 195 191 192 184 183 185 190 199 202 204 204 199 203 213 231 239 251 261 271 284 291 302 311 320 320 313 312 317 321
228 227 227 227 221 222 223 218 215 217 224 221 226 220 211 196 181 177 180 201 191 193 193 195 180 176 183 197 213 218 217 216 212 222 236 248 258 265 277 287 298 304 308 305 301 307 311 314 316
228 228 227 226 221 219 221 218 214 217 222 221 221 219 218 206 183 181 193 192 200 200 197 192 186 177 185 193 206 217 220 226 227 237 243 248 258 269 280 289 296 297 302 301 295 299 307 310 315
229 227 227 225 222 219 220 218 216 216 220 221 221 221 218 197 179 185 185 194 206 201 200 189 190 187 187 199 214 223 224 232 234 242 246 254 263 270 278 283 288 287 288 291 296 300 301 306 312
228 230 229 226 223 219 218 217 220 215 217 220 213 203 216 222 220 210 205 194 195 196 197 192 188 194 200 210 224 234 235 237 234 238 245 254 263 270 271 274 280 285 288 292 293 298 304 309 308
227 227 229 226 224 219 216 218 218 219 217 213 221 193 192 215 221 216 204 194 199 194 189 192 191 203 215 221 231 246 240 235 235 241 248 253 258 261 266 274 281 287 288 289 292 300 304 307 311
227 227 228 227 223 220 217 216 212 222 220 215 214 217 214 213 191 181 192 190 193 198 196 196 202 205 220 227 226 229 230 234 239 239 246 248 250 255 265 272 281 281 284 290 294 300 309 311 311
228 227 227 226 224 220 217 216 213 217 220 223 213 206 203 213 214 202 193 204 201 203 201 203 204 212 222 227 230 229 226 240 237 236 238 242 252 258 267 273 273 277 285 292 295 301 305 306 307
228 229 228 225 221 220 218 214 213 212 220 222 214 208 207 216 216 197 198 204 203 204 207 212 216 220 225 226 222 226 234 237 236 238 238 238 241 248 259 266 272 280 287 290 295 298 299 301 304
231 230 229 228 223 219 218 208 212 208 217 216 216 214 201 206 214 203 199 202 202 205 206 207 220 228 235 242 246 244 240 236 236 240 240 245 249 259 261 268 278 283 291 295 293 294 299 300 299
230 231 228 226 224 221 215 206 213 208 211 217 214 213 212 211 216 219 210 203 207 207 207 211 224 233 243 248 249 253 255 257 248 238 242 246 250 251 261 267 274 280 285 287 289 291 295 299 299
230 228 227 224 221 219 214 207 209 209 208 215 212 213 212 210 214 211 210 214 215 209 221 237 243 243 243 248 259 262 256 250 250 247 244 245 249 254 261 267 272 276 285 290 291 296 298 298 294
230 228 227 223 219 216 211 209 203 205 209 211 210 213 210 209 201 217 211 206 206 216 236 249 259 254 255 257 251 252 256 249 249 247 248 249 243 247 253 264 270 280 288 291 291 290 290 286 307
231 230 227 225 216 213 211 208 200 202 209 206 211 212 212 212 219 218 215 215 218 234 249 255 262 263 254 259 261 264 259 269 271 255 251 257 250 242 252 255 272 280 283 283 287 292 303 303 311
230 228 227 223 216 211 208 209 196 201 206 207 207 209 215 217 222 227 231 234 246 237 240 254 249 255 259 270 264 258 258 262 259 265 259 266 250 252 255 272 283 280 288 284 303 309 312 312 310
226 225 225 223 213 208 205 206 193 198 207 209 206 207 208 208 216 227 233 238 236 226 246 243 247 251 255 258 256 264 267 252 265 279 236 239 280 343 313 306 307 306 308 308 309 308 309 308 309
222 221 219 219 214 205 203 205 188 196 204 207 203 204 207 213 219 220 220 218 225 230 238 241 239 241 246 254 272 262 263 250 263 47 293 305 324 320 313 312 309 307 305 305 307 309 309 308 305
229 219 214 217 215 205 201 201 187 196 203 208 204 198 202 207 212 213 216 218 222 222 227 235 241 251 263 269 268 248 270 246 282 325 319 315 311 312 312 311 308 309 309 309 309 308 307 308 312
228 219 212 210 209 204 199 197 187 192 202 207 209 202 202 207 211 214 216 221 213 216 222 235 243 255 260 254 265 275 275 279 298 310 312 306 306 305 306 307 310 312 312 312 312 313 316 320 320
224 216 214 209 205 200 197 193 183 189 199 205 208 209 203 205 210 215 213 210 211 212 218 233 243 252 253 252 256 272 281 290 297 301 302 303 302 306 308 315 319 312 315 318 321 323 324 324 321
225 210 206 205 206 200 197 183 184 188 198 202 205 209 212 214 216 211 210 211 214 214 216 234 244 243 244 249 259 279 286 282 286 289 297 303 306 313 317 315 313 315 319 323 328 326 327 325 325
205 193 196 195 194 195 191 182 184 190 193 200 205 210 213 213 213 211 208 217 222 219 222 231 247 242 241 249 254 267 268 275 282 289 294 298 310 319 316 317 317 321 326 326 329 330 325 326 325
184 181 185 194 192 187 188 182 182 191 197 203 205 210 213 212 210 206 211 222 229 224 224 229 240 244 246 256 267 269 275 280 285 292 300 310 318 321 319 322 327 334 327 330 329 330 329 327 325
176 175 173 186 195 187 191 181 181 190 197 204 206 209 212 214 214 216 221 229 233 226 227 234 232 241 250 257 265 271 278 281 288 296 305 313 322 322 326 328 336 334 332 328 325 331 329 327 327